Weather reports worldwide

Advertisment
New York City, ny, United States of America (2074728): temperature & dewpoint: 03.12.2019 16:00:00 - 09.12.2019 16:00:00 (EST)New York City, ny, United States of America (2074728): wind speed & gusts: 03.12.2019 16:00:00 - 09.12.2019 16:00:00 (EST)New York City, ny, United States of America (2074728): wind direction: 03.12.2019 16:00:00 - 09.12.2019 16:00:00 (EST)New York City, ny, United States of America (2074728): reduced air pressure: 03.12.2019 16:00:00 - 09.12.2019 16:00:00 (EST)New York City, ny, United States of America (2074728): visibility: 03.12.2019 16:00:00 - 09.12.2019 16:00:00 (EST)New York City, ny, United States of America (2074728): precipitation: 03.12.2019 16:00:00 - 09.12.2019 16:00:00 (EST)
Date & Time tt [°C] td [°C] ff [km/h] ff [kn] fx [km/h] fx [kn] dd ppp [hPa] vv [km] rr [mm]
09.12.2019 16:00:00 11,7 10,0 5 3 - - - 1011,7 4,8 0,3
09.12.2019 15:00:00 11,1 10,0 5 3 - - - 1013,3 8 1,0
09.12.2019 14:00:00 11,1 9,4 8 4 - - WSW 1014,2 4,8 0,0
09.12.2019 13:00:00 11,1 10,0 15 8 - - WSW 1014,9 10 -
09.12.2019 12:00:00 11,7 11,1 9 5 - - - 1015,5 16 -
09.12.2019 11:00:00 10,6 10,0 0 0 - - N 1016,5 1,6 0,8
09.12.2019 10:00:00 9,4 8,9 8 4 - - SE 1017,6 2,0 0,3
09.12.2019 09:00:00 7,2 6,7 8 4 - - NE 1019,0 1,6 1,0
09.12.2019 08:00:00 6,1 5,6 8 4 - - NE 1019,8 2,4 3,8
09.12.2019 07:00:00 6,1 5,6 8 4 - - NE 1020,8 2,0 2,0
09.12.2019 06:00:00 6,1 5,0 8 4 - - NE 1022,0 2,8 1,3
09.12.2019 05:00:00 6,1 5,0 5 3 - - N 1023,0 1,6 0,8
09.12.2019 04:00:00 5,6 4,4 5 3 - - - 1023,8 3,2 0,0
09.12.2019 03:00:00 5,6 5,0 8 4 - - WNW 1024,8 4,8 0,8
09.12.2019 02:00:00 6,1 5,0 0 0 - - N 1025,4 6 0,0
09.12.2019 01:00:00 5,6 3,9 5 3 - - - 1026,3 6 0,5
09.12.2019 00:00:00 7,8 1,7 0 0 - - N 1026,7 16 -
08.12.2019 23:00:00 - - - - - - - - - -
08.12.2019 22:00:00 6,1 0,6 5 3 - - - 1027,9 16 -
08.12.2019 21:00:00 6,1 1,1 0 0 - - N 1028,5 16 -
08.12.2019 20:00:00 6,1 0,0 5 3 - - - 1029,0 16 -
08.12.2019 19:00:00 5,0 -1,1 - - - - - 1029,7 16 -
08.12.2019 18:00:00 4,4 -3,3 8 4 - - - 1029,7 16 -
08.12.2019 17:00:00 4,4 -3,3 8 4 - - S 1029,8 16 -
08.12.2019 16:00:00 5,0 -3,9 8 4 - - - 1030,3 16 -
08.12.2019 15:00:00 5,0 -4,4 - - - - - 1030,6 16 -
08.12.2019 14:00:00 5,0 -6,1 8 4 - - - 1031,0 16 -
08.12.2019 13:00:00 4,4 -7,8 9 5 - - - 1031,3 16 -
08.12.2019 12:00:00 3,9 -6,7 11 6 - - SSE 1032,2 16 -
08.12.2019 11:00:00 2,8 -6,7 8 4 - - S 1033,3 16 -
08.12.2019 10:00:00 1,1 -7,8 5 3 - - - 1034,0 16 -
08.12.2019 09:00:00 0,0 -8,9 0 0 - - N 1034,2 16 -
08.12.2019 08:00:00 -1,1 -8,3 5 3 - - E 1034,1 16 -
08.12.2019 07:00:00 -2,2 -7,8 0 0 - - N 1033,6 16 -
08.12.2019 06:00:00 -2,2 -8,3 0 0 - - N 1033,3 16 -
08.12.2019 05:00:00 -2,2 -8,9 0 0 - - N 1033,3 16 -
08.12.2019 04:00:00 -1,7 -8,9 0 0 - - N 1033,2 16 -
08.12.2019 03:00:00 -2,2 -8,9 5 3 - - NNE 1033,3 16 -
08.12.2019 02:00:00 -1,7 -9,4 0 0 - - N 1033,1 16 -
08.12.2019 01:00:00 -1,1 -10,0 0 0 - - N 1032,8 16 -
08.12.2019 00:00:00 -0,6 -10,0 5 3 - - - 1032,8 16 -
07.12.2019 23:00:00 -0,6 -10,0 - - - - - 1032,9 16 -
07.12.2019 22:00:00 0,0 -10,0 0 0 - - N 1032,2 16 -
07.12.2019 21:00:00 0,0 -10,0 0 0 - - N 1032,0 16 -
07.12.2019 20:00:00 0,6 -10,0 9 5 - - - 1031,5 16 -
07.12.2019 19:00:00 1,1 -10,0 11 6 - - WNW 1030,9 16 -
07.12.2019 18:00:00 1,7 -10,0 9 5 - - - 1030,5 16 -
07.12.2019 17:00:00 2,2 -10,0 11 6 - - WNW 1029,4 16 -
07.12.2019 16:00:00 2,8 -10,6 9 5 - - WNW 1028,6 16 -
07.12.2019 15:00:00 3,3 -10,6 15 8 - - W 1028,0 16 -
07.12.2019 14:00:00 3,3 -10,6 16 9 - - N 1027,8 16 -
07.12.2019 13:00:00 2,8 -10,6 16 9 - - WNW 1027,8 16 -
07.12.2019 12:00:00 2,2 -10,0 - - - - - 1027,8 16 -
07.12.2019 11:00:00 1,7 -9,4 9 5 - - - 1028,1 16 -
07.12.2019 10:00:00 1,1 -8,9 13 7 - - WNW 1028,2 16 -
07.12.2019 09:00:00 0,6 -8,3 16 9 - - WNW 1027,7 16 -
07.12.2019 08:00:00 0,6 -7,8 13 7 - - WNW 1027,2 16 -
07.12.2019 07:00:00 0,6 -7,8 9 5 - - WNW 1026,5 16 -
07.12.2019 06:00:00 0,6 -7,8 13 7 - - W 1025,4 16 -
07.12.2019 05:00:00 1,1 -6,7 5 3 - - W 1024,4 16 -
07.12.2019 04:00:00 1,1 -6,1 8 4 - - - 1023,7 16 -
07.12.2019 03:00:00 1,7 -6,1 18 10 - - WNW 1023,0 16 -
07.12.2019 02:00:00 2,2 -6,1 21 11 - - WNW 1022,2 16 -
07.12.2019 01:00:00 2,8 -6,1 15 8 - - WNW 1021,1 16 -
07.12.2019 00:00:00 3,3 -6,1 18 10 - - WNW 1020,4 16 -
06.12.2019 23:00:00 4,4 -5,6 13 7 - - WNW 1020,0 16 -
06.12.2019 22:00:00 5,6 -5,0 16 9 - - WNW 1018,8 16 -
06.12.2019 21:00:00 6,7 -3,3 22 12 48 26 WNW 1017,9 16 -
06.12.2019 20:00:00 8,3 -1,1 15 8 - - WNW 1016,5 16 -
06.12.2019 19:00:00 8,9 -0,6 11 6 - - W 1015,3 16 -
06.12.2019 18:00:00 9,4 -0,6 15 8 - - W 1014,7 16 -
06.12.2019 17:00:00 9,4 -1,1 8 4 - - - 1013,4 16 -
06.12.2019 16:00:00 9,4 -2,8 15 8 - - SW 1013,7 16 -
06.12.2019 15:00:00 9,4 -3,3 16 9 - - SW 1013,7 16 -
06.12.2019 14:00:00 8,3 -2,8 9 5 - - - 1014,7 16 -
06.12.2019 13:00:00 7,2 -3,3 8 4 - - - 1015,4 16 -
06.12.2019 12:00:00 6,7 -3,9 5 3 - - - 1017,0 16 -
06.12.2019 11:00:00 6,1 -3,9 - - - - - 1018,2 16 -
06.12.2019 10:00:00 5,0 -3,9 - - - - - 1019,5 16 -
06.12.2019 09:00:00 3,9 -5,0 11 6 - - - 1020,2 16 -
06.12.2019 08:00:00 2,8 -6,1 8 4 - - - 1020,2 16 -
06.12.2019 07:00:00 2,2 -6,1 5 3 - - - 1020,4 16 -
06.12.2019 06:00:00 2,2 -6,1 9 5 - - - 1020,2 16 -
06.12.2019 05:00:00 1,7 -6,7 5 3 - - - 1020,1 16 -
06.12.2019 04:00:00 - - - - - - - - - -
06.12.2019 03:00:00 1,7 -6,7 9 5 - - W 1020,3 16 -
06.12.2019 02:00:00 1,7 -6,7 16 9 - - W 1019,9 2,8 -
06.12.2019 01:00:00 - - - - - - - - - -
06.12.2019 00:00:00 2,8 -6,1 9 5 - - - 1018,7 16 -
05.12.2019 23:00:00 2,8 -6,1 16 9 - - WNW 1018,3 16 -
05.12.2019 22:00:00 2,8 -6,1 13 7 - - W 1017,4 16 -
05.12.2019 21:00:00 3,3 -5,0 15 8 - - W 1016,3 16 -
05.12.2019 20:00:00 3,3 -4,4 18 10 - - WNW 1015,5 16 -
05.12.2019 19:00:00 3,3 -5,0 16 9 - - W 1014,6 16 -
05.12.2019 18:00:00 3,9 -5,6 13 7 - - WNW 1013,7 16 -
05.12.2019 17:00:00 3,9 -5,0 16 9 - - W 1012,5 16 -
05.12.2019 16:00:00 3,9 -4,4 15 8 - - WNW 1011,1 16 -
05.12.2019 15:00:00 5,0 -6,1 21 11 - - WNW 1009,9 16 -
05.12.2019 14:00:00 5,0 -7,2 18 10 - - WNW 1008,8 16 -
05.12.2019 13:00:00 5,0 -6,7 26 14 52 28 W 1008,3 16 -
05.12.2019 12:00:00 5,0 -6,7 21 11 - - WNW 1008,8 16 -
05.12.2019 11:00:00 5,0 -5,6 28 15 50 27 WNW 1008,2 16 -
05.12.2019 10:00:00 4,4 -2,2 21 11 - - W 1007,6 16 -
05.12.2019 09:00:00 3,9 -1,1 15 8 - - W 1006,5 16 -
05.12.2019 08:00:00 3,3 -1,1 9 5 - - WSW 1005,6 16 -
05.12.2019 07:00:00 3,3 -1,1 8 4 - - - 1004,6 16 -
05.12.2019 06:00:00 2,8 -0,6 15 8 - - W 1003,4 16 -
05.12.2019 05:00:00 2,8 -0,6 9 5 - - - 1002,2 16 -
05.12.2019 04:00:00 2,8 -0,6 11 6 - - W 1001,3 16 -
05.12.2019 03:00:00 2,2 -0,6 0 0 - - N 1000,7 15 -
05.12.2019 02:00:00 2,8 0,0 9 5 - - WNW 1000,2 13 -
05.12.2019 01:00:00 2,8 0,0 8 4 - - W 999,8 13 -
05.12.2019 00:00:00 3,3 0,0 15 8 - - WSW 999,8 15 -
04.12.2019 23:00:00 2,8 0,6 11 6 - - WSW 1000,0 11 0,0
04.12.2019 22:00:00 3,3 0,6 11 6 - - - 1000,0 11 0,0
04.12.2019 21:00:00 3,9 0,0 11 6 - - SW 1000,0 15 -
04.12.2019 20:00:00 3,9 -0,6 0 0 - - N 1000,3 13 -
04.12.2019 19:00:00 3,9 -1,1 9 5 - - - 1000,0 15 -
04.12.2019 18:00:00 3,9 -1,1 11 6 - - WSW 999,7 15 -
04.12.2019 17:00:00 3,3 -1,1 8 4 - - - 999,4 15 -
04.12.2019 16:00:00 3,3 -1,1 11 6 - - W 999,1 13 -
04.12.2019 15:00:00 3,3 -1,1 - - - - - 998,9 13 -
04.12.2019 14:00:00 3,3 -1,1 11 6 - - W 998,9 13 -
04.12.2019 13:00:00 2,8 -1,1 13 7 - - WSW 999,5 13 -
04.12.2019 12:00:00 2,8 -0,6 5 3 - - WNW 1000,4 11 -
04.12.2019 11:00:00 2,8 -0,6 9 5 - - - 1001,1 10 -
04.12.2019 10:00:00 2,2 -0,6 9 5 - - - 1001,6 11 -
04.12.2019 09:00:00 2,2 -1,7 8 4 - - - 1001,8 13 -
04.12.2019 08:00:00 2,2 -2,2 18 10 - - WSW 1001,8 16 -
04.12.2019 07:00:00 1,7 -2,8 13 7 - - SW 1001,5 16 -
04.12.2019 06:00:00 1,7 -2,8 5 3 - - - 1001,5 16 -
04.12.2019 05:00:00 1,1 -3,3 0 0 - - N 1001,1 16 -
04.12.2019 04:00:00 1,1 -3,9 0 0 - - N 1001,7 16 -
04.12.2019 03:00:00 - - - - - - - - - -
04.12.2019 02:00:00 0,6 -4,4 9 5 - - W 1002,2 16 -
04.12.2019 01:00:00 0,0 -5,0 5 3 - - WSW 1002,0 16 -
04.12.2019 00:00:00 0,0 -4,4 0 0 - - N 1002,4 16 -
03.12.2019 23:00:00 0,0 -5,0 8 4 - - - 1002,3 16 -
03.12.2019 22:00:00 0,0 -5,0 16 9 - - W 1002,1 16 -
03.12.2019 21:00:00 0,0 -6,1 9 5 - - W 1001,8 16 -
03.12.2019 20:00:00 0,0 -6,7 13 7 - - WNW 1001,8 16 -
03.12.2019 19:00:00 0,6 -6,1 15 8 - - W 1001,7 16 -
03.12.2019 18:00:00 1,1 -5,6 21 11 - - W 1001,8 16 -
03.12.2019 17:00:00 1,1 -5,0 - - 48 26 - 1001,2 16 -
03.12.2019 16:00:00 2,2 -4,4 15 8 - - W 1000,3 16 -

tt = temperature
td = dewpoint
ff = wind speed
fx = gusts
dd = wind direction
ppp = reduced air pressure
vv = visibility
rr = precipitation

Next stations